Terminal Aerodrome Forecast
Issued by NWS State College, PA

Home | Current Version | Previous Version | Text Only | Print | Product List | Glossary On
Versions: 1 2 3 4 5 6 7 8 9 10 11 12 13 14 15 16 17 18 19 20 21 22 23 24 25 26 27 28 29 30 31 32 33 34 35 36 37 38 39 40 41 42 43 44 45 46 47 48 49 50
000
FTUS41 KCTP 031526 AAB
TAFIPT
TAF AMD
KIPT 031526Z 0315/0412 00000KT P6SM BKN080 BKN090
     FM031800 11005KT 1SM -SN BR OVC020
     FM032100 11007KT 1SM -SNPL BR OVC015
     FM040000 11009G15KT 1 1/2SM -FZRA BR OVC006 WS020/25040KT
     FM040800 21008KT 2SM -RA BR OVC009 WS020/27040KT=

USA.gov is the U.S. government's official web portal to all federal, state and local government web resources and services.